Time,TemperatureF,DewpointF,PressureIn,WindDirection,WindDirectionDegrees,WindSpeedMPH,WindSpeedGustMPH,Humidity,HourlyPrecipIn,Conditions,Clouds,dailyrainin,SolarRadiationWatts/m^2,SoftwareType,DateUTC
2013-11-18 00:04:00,55.8,45.0,30.00,SSW,208,0.0,-999.0,67,0.00,,,0.00,0,Wunderground v.1.15,2013-11-18 07:04:00,
2013-11-18 00:09:00,55.6,44.8,30.00,SSW,208,0.0,-999.0,67,0.00,,,0.00,0,Wunderground v.1.15,2013-11-18 07:09:00,
2013-11-18 00:14:00,55.4,45.0,30.00,SSW,208,0.0,-999.0,68,0.00,,,0.00,0,Wunderground v.1.15,2013-11-18 07:14:00,
2013-11-18 00:19:00,55.3,45.3,30.00,SSW,208,0.0,-999.0,69,0.00,,,0.00,0,Wunderground v.1.15,2013-11-18 07:19:00,
2013-11-18 00:24:00,55.2,45.2,30.01,SSW,208,0.0,-999.0,69,0.00,,,0.00,0,Wunderground v.1.15,2013-11-18 07:24:00,
2013-11-18 00:30:00,55.1,45.5,30.00,SSW,208,0.0,-999.0,70,0.00,,,0.00,0,Wunderground v.1.15,2013-11-18 07:30:00,
2013-11-18 00:36:00,55.1,45.1,30.01,SSW,208,0.0,-999.0,69,0.00,,,0.00,0,Wunderground v.1.15,2013-11-18 07:36:00,
2013-11-18 00:41:00,55.1,45.1,30.01,SSW,208,0.0,-999.0,69,0.00,,,0.00,0,Wunderground v.1.15,2013-11-18 07:41:00,
2013-11-18 00:46:00,55.1,45.1,30.01,SSW,208,0.0,-999.0,69,0.00,,,0.00,0,Wunderground v.1.15,2013-11-18 07:46:00,
2013-11-18 00:51:00,55.1,45.1,30.00,SSW,208,0.0,-999.0,69,0.00,,,0.00,0,Wunderground v.1.15,2013-11-18 07:51:00,
2013-11-18 00:57:00,55.0,45.0,30.00,SSW,208,0.0,-999.0,69,0.00,,,0.00,0,Wunderground v.1.15,2013-11-18 07:57:00,
2013-11-18 01:02:00,54.9,44.9,30.00,SSW,208,0.0,-999.0,69,0.00,,,0.00,0,Wunderground v.1.15,2013-11-18 08:02:00,
2013-11-18 01:08:00,54.8,44.8,30.00,SSW,208,0.0,-999.0,69,0.00,,,0.00,0,Wunderground v.1.15,2013-11-18 08:08:00,
2013-11-18 01:13:00,54.8,44.8,30.00,SSW,208,0.0,-999.0,69,0.00,,,0.00,0,Wunderground v.1.15,2013-11-18 08:13:00,
2013-11-18 01:19:00,54.6,44.2,30.00,SSW,208,0.0,-999.0,68,0.00,,,0.00,0,Wunderground v.1.15,2013-11-18 08:19:00,
2013-11-18 01:24:00,54.5,44.2,30.00,SSW,208,0.0,-999.0,68,0.00,,,0.00,0,Wunderground v.1.15,2013-11-18 08:24:00,
2013-11-18 01:29:00,54.2,43.5,30.00,SSW,208,0.0,-999.0,67,0.00,,,0.00,0,Wunderground v.1.15,2013-11-18 08:29:00,
2013-11-18 01:35:00,53.9,43.2,30.01,SSW,208,0.0,-999.0,67,0.00,,,0.00,0,Wunderground v.1.15,2013-11-18 08:35:00,
2013-11-18 01:40:00,53.8,43.5,30.00,SSW,208,0.0,-999.0,68,0.00,,,0.00,0,Wunderground v.1.15,2013-11-18 08:40:00,
2013-11-18 01:46:00,53.5,43.6,30.00,SSW,208,0.0,-999.0,69,0.00,,,0.00,0,Wunderground v.1.15,2013-11-18 08:46:00,
2013-11-18 01:51:00,53.3,43.4,30.00,SSW,208,0.0,-999.0,69,0.00,,,0.00,0,Wunderground v.1.15,2013-11-18 08:51:00,
2013-11-18 01:56:00,53.2,43.7,30.00,SSW,208,0.0,-999.0,70,0.00,,,0.00,0,Wunderground v.1.15,2013-11-18 08:56:00,
2013-11-18 02:01:00,52.9,43.4,30.00,SSW,208,0.0,-999.0,70,0.00,,,0.00,0,Wunderground v.1.15,2013-11-18 09:01:00,
2013-11-18 02:07:00,52.5,43.0,30.00,SSW,208,0.0,-999.0,70,0.00,,,0.00,0,Wunderground v.1.15,2013-11-18 09:07:00,
2013-11-18 02:12:00,52.3,43.2,30.00,SSW,208,0.0,-999.0,71,0.00,,,0.00,0,Wunderground v.1.15,2013-11-18 09:12:00,
2013-11-18 02:17:00,52.1,43.0,30.00,SSW,208,0.0,-999.0,71,0.00,,,0.00,0,Wunderground v.1.15,2013-11-18 09:17:00,
2013-11-18 02:22:00,51.9,42.8,30.00,SSW,208,0.0,-999.0,71,0.00,,,0.00,0,Wunderground v.1.15,2013-11-18 09:22:00,
2013-11-18 02:27:00,51.7,42.6,30.00,SSW,208,0.0,-999.0,71,0.00,,,0.00,0,Wunderground v.1.15,2013-11-18 09:27:00,
2013-11-18 02:32:00,51.5,42.4,30.00,SSW,208,0.0,-999.0,71,0.00,,,0.00,0,Wunderground v.1.15,2013-11-18 09:32:00,
2013-11-18 02:37:00,51.3,42.6,30.00,SSW,208,0.0,-999.0,72,0.00,,,0.00,0,Wunderground v.1.15,2013-11-18 09:37:00,
2013-11-18 02:42:00,51.1,42.4,30.00,SSW,208,0.0,-999.0,72,0.00,,,0.00,0,Wunderground v.1.15,2013-11-18 09:42:00,
2013-11-18 02:47:00,50.8,42.1,30.00,SSW,208,0.0,-999.0,72,0.00,,,0.00,0,Wunderground v.1.15,2013-11-18 09:47:00,
2013-11-18 02:52:00,50.6,42.6,30.00,SSW,208,0.0,-999.0,74,0.00,,,0.00,0,Wunderground v.1.15,2013-11-18 09:52:00,
2013-11-18 02:57:00,50.5,42.9,30.00,SSW,208,0.0,-999.0,75,0.00,,,0.00,0,Wunderground v.1.15,2013-11-18 09:57:00,
2013-11-18 03:02:00,50.3,42.3,29.99,SSW,208,0.0,-999.0,74,0.00,,,0.00,0,Wunderground v.1.15,2013-11-18 10:02:00,
2013-11-18 03:07:00,50.1,42.1,29.99,SSW,208,0.0,-999.0,74,0.00,,,0.00,0,Wunderground v.1.15,2013-11-18 10:07:00,
2013-11-18 03:13:00,49.9,41.9,29.99,SSW,208,0.0,-999.0,74,0.00,,,0.00,0,Wunderground v.1.15,2013-11-18 10:13:00,
2013-11-18 03:17:00,49.7,42.1,29.99,SSW,208,0.0,-999.0,75,0.00,,,0.00,0,Wunderground v.1.15,2013-11-18 10:17:00,
2013-11-18 03:23:00,49.7,42.8,30.00,SSW,208,0.0,-999.0,77,0.00,,,0.00,0,Wunderground v.1.15,2013-11-18 10:23:00,
2013-11-18 03:27:00,49.7,43.1,30.00,SSW,208,0.0,-999.0,78,0.00,,,0.00,0,Wunderground v.1.15,2013-11-18 10:27:00,
2013-11-18 03:32:00,49.6,43.0,30.00,SSW,208,0.0,-999.0,78,0.00,,,0.00,0,Wunderground v.1.15,2013-11-18 10:32:00,
2013-11-18 03:37:00,49.6,43.0,30.00,SSW,208,0.0,-999.0,78,0.00,,,0.00,0,Wunderground v.1.15,2013-11-18 10:37:00,
2013-11-18 03:43:00,49.5,42.9,30.00,SSW,208,0.0,-999.0,78,0.00,,,0.00,0,Wunderground v.1.15,2013-11-18 10:43:00,
2013-11-18 03:47:00,49.4,42.5,30.00,SSW,208,0.0,-999.0,77,0.00,,,0.00,0,Wunderground v.1.15,2013-11-18 10:47:00,
2013-11-18 03:52:00,49.3,42.7,30.00,SSW,208,0.0,-999.0,78,0.00,,,0.00,0,Wunderground v.1.15,2013-11-18 10:52:00,
2013-11-18 03:57:00,49.4,43.2,30.00,SSW,208,0.0,-999.0,79,0.00,,,0.00,0,Wunderground v.1.15,2013-11-18 10:57:00,
2013-11-18 04:02:00,49.5,43.6,30.00,SSW,208,0.0,-999.0,80,0.00,,,0.00,0,Wunderground v.1.15,2013-11-18 11:02:00,
2013-11-18 04:07:00,49.7,44.1,30.00,SSW,208,0.0,-999.0,81,0.00,,,0.00,0,Wunderground v.1.15,2013-11-18 11:07:00,
2013-11-18 04:12:00,50.0,44.4,30.01,SSW,208,0.0,-999.0,81,0.00,,,0.00,0,Wunderground v.1.15,2013-11-18 11:12:00,
2013-11-18 04:17:00,50.2,44.6,30.01,SSW,208,0.0,-999.0,81,0.00,,,0.00,0,Wunderground v.1.15,2013-11-18 11:17:00,
2013-11-18 04:22:00,50.3,44.7,30.01,SSW,208,0.0,-999.0,81,0.00,,,0.00,0,Wunderground v.1.15,2013-11-18 11:22:00,
2013-11-18 04:27:00,50.3,44.7,30.00,SSW,208,0.0,-999.0,81,0.00,,,0.00,0,Wunderground v.1.15,2013-11-18 11:27:00,
2013-11-18 04:32:00,50.4,44.8,30.01,SSW,208,0.0,-999.0,81,0.00,,,0.00,0,Wunderground v.1.15,2013-11-18 11:32:00,
2013-11-18 04:37:00,50.3,44.4,30.01,SSW,208,0.0,-999.0,80,0.00,,,0.00,0,Wunderground v.1.15,2013-11-18 11:37:00,
2013-11-18 04:42:00,50.1,43.8,30.01,SSW,208,0.0,-999.0,79,0.00,,,0.00,0,Wunderground v.1.15,2013-11-18 11:42:00,
2013-11-18 04:47:00,50.0,43.7,30.01,SSW,208,0.0,-999.0,79,0.00,,,0.00,0,Wunderground v.1.15,2013-11-18 11:47:00,
2013-11-18 04:52:00,49.8,43.2,30.01,SSW,208,0.0,-999.0,78,0.00,,,0.00,0,Wunderground v.1.15,2013-11-18 11:52:00,
2013-11-18 04:57:00,49.5,42.9,30.01,SSW,208,0.0,-999.0,78,0.00,,,0.00,0,Wunderground v.1.15,2013-11-18 11:57:00,
2013-11-18 05:02:00,49.2,42.6,30.00,SSW,208,0.0,-999.0,78,0.00,,,0.00,0,Wunderground v.1.15,2013-11-18 12:02:00,
2013-11-18 05:08:00,49.0,42.1,30.00,SSW,208,0.0,-999.0,77,0.00,,,0.00,0,Wunderground v.1.15,2013-11-18 12:08:00,
2013-11-18 05:13:00,48.5,41.6,30.01,SSW,208,0.0,-999.0,77,0.00,,,0.00,0,Wunderground v.1.15,2013-11-18 12:13:00,
2013-11-18 05:18:00,48.1,41.2,30.01,SSW,208,0.0,-999.0,77,0.00,,,0.00,0,Wunderground v.1.15,2013-11-18 12:18:00,
2013-11-18 05:23:00,47.8,41.3,30.01,SSW,208,0.0,-999.0,78,0.00,,,0.00,0,Wunderground v.1.15,2013-11-18 12:23:00,
2013-11-18 05:28:00,47.5,41.0,30.01,SSW,208,0.0,-999.0,78,0.00,,,0.00,0,Wunderground v.1.15,2013-11-18 12:28:00,
2013-11-18 05:33:00,47.2,40.4,30.01,SSW,208,0.0,-999.0,77,0.00,,,0.00,0,Wunderground v.1.15,2013-11-18 12:33:00,
2013-11-18 05:38:00,46.8,39.6,30.01,SSW,208,0.0,-999.0,76,0.00,,,0.00,0,Wunderground v.1.15,2013-11-18 12:38:00,
2013-11-18 05:43:00,46.5,39.3,30.01,SSW,208,0.0,-999.0,76,0.00,,,0.00,0,Wunderground v.1.15,2013-11-18 12:43:00,
2013-11-18 05:48:00,46.0,38.9,30.02,SSW,208,0.0,-999.0,76,0.00,,,0.00,0,Wunderground v.1.15,2013-11-18 12:48:00,
2013-11-18 05:53:00,45.7,38.6,30.02,SSW,208,0.0,-999.0,76,0.00,,,0.00,0,Wunderground v.1.15,2013-11-18 12:53:00,
2013-11-18 05:58:00,45.3,38.2,30.02,SSW,208,0.0,-999.0,76,0.00,,,0.00,0,Wunderground v.1.15,2013-11-18 12:58:00,
2013-11-18 06:03:00,45.0,38.2,30.02,SSW,208,0.0,-999.0,77,0.00,,,0.00,0,Wunderground v.1.15,2013-11-18 13:03:00,
2013-11-18 06:08:00,44.7,37.9,30.03,SSW,208,0.0,-999.0,77,0.00,,,0.00,0,Wunderground v.1.15,2013-11-18 13:08:00,
2013-11-18 06:13:00,44.4,38.0,30.03,SSW,208,0.0,-999.0,78,0.00,,,0.00,0,Wunderground v.1.15,2013-11-18 13:13:00,
2013-11-18 06:18:00,44.2,38.1,30.03,SSW,208,0.0,-999.0,79,0.00,,,0.00,0,Wunderground v.1.15,2013-11-18 13:18:00,
2013-11-18 06:23:00,43.9,37.8,30.03,SSW,208,0.0,-999.0,79,0.00,,,0.00,0,Wunderground v.1.15,2013-11-18 13:23:00,
2013-11-18 06:28:00,43.7,37.9,30.03,SSW,208,0.0,-999.0,80,0.00,,,0.00,0,Wunderground v.1.15,2013-11-18 13:28:00,
2013-11-18 06:33:00,43.6,37.8,30.03,SSW,208,0.0,-999.0,80,0.00,,,0.00,0,Wunderground v.1.15,2013-11-18 13:33:00,
2013-11-18 06:38:00,43.4,38.0,30.03,SSW,208,0.0,-999.0,81,0.00,,,0.00,0,Wunderground v.1.15,2013-11-18 13:38:00,
2013-11-18 06:43:00,43.4,38.3,30.03,SSW,208,0.0,-999.0,82,0.00,,,0.00,0,Wunderground v.1.15,2013-11-18 13:43:00,
2013-11-18 06:48:00,43.5,38.4,30.04,SSW,208,0.0,-999.0,82,0.00,,,0.00,0,Wunderground v.1.15,2013-11-18 13:48:00,
2013-11-18 06:53:00,43.4,38.6,30.04,SSW,208,0.0,-999.0,83,0.00,,,0.00,0,Wunderground v.1.15,2013-11-18 13:53:00,
2013-11-18 06:58:00,43.4,38.6,30.04,SSW,208,0.0,-999.0,83,0.00,,,0.00,5,Wunderground v.1.15,2013-11-18 13:58:00,
2013-11-18 07:03:00,43.2,38.4,30.05,SSW,208,0.0,-999.0,83,0.00,,,0.00,9,Wunderground v.1.15,2013-11-18 14:03:00,
2013-11-18 07:08:00,43.1,38.3,30.05,SSW,208,0.0,-999.0,83,0.00,,,0.00,12,Wunderground v.1.15,2013-11-18 14:08:00,
2013-11-18 07:13:00,43.0,38.2,30.05,SSW,208,0.0,-999.0,83,0.00,,,0.00,16,Wunderground v.1.15,2013-11-18 14:13:00,
2013-11-18 07:18:00,42.8,37.7,30.05,SSW,208,0.0,-999.0,82,0.00,,,0.00,26,Wunderground v.1.15,2013-11-18 14:18:00,
2013-11-18 07:23:00,42.8,38.0,30.05,SSW,208,0.0,-999.0,83,0.00,,,0.00,35,Wunderground v.1.15,2013-11-18 14:23:00,
2013-11-18 07:28:00,42.9,38.1,30.05,SSW,208,0.0,-999.0,83,0.00,,,0.00,47,Wunderground v.1.15,2013-11-18 14:28:00,
2013-11-18 07:33:00,43.0,38.2,30.05,SSW,208,0.0,-999.0,83,0.00,,,0.00,60,Wunderground v.1.15,2013-11-18 14:33:00,
2013-11-18 07:38:00,43.3,38.8,30.05,SSW,208,0.0,-999.0,84,0.00,,,0.00,76,Wunderground v.1.15,2013-11-18 14:38:00,
2013-11-18 07:43:00,43.7,39.5,30.05,SSW,208,0.0,-999.0,85,0.00,,,0.00,93,Wunderground v.1.15,2013-11-18 14:43:00,
2013-11-18 07:48:00,44.4,40.5,30.06,SSW,208,0.0,-999.0,86,0.00,,,0.00,111,Wunderground v.1.15,2013-11-18 14:48:00,
2013-11-18 07:53:00,45.3,41.4,30.06,SSW,208,0.0,-999.0,86,0.00,,,0.00,127,Wunderground v.1.15,2013-11-18 14:53:00,
2013-11-18 07:58:00,46.0,42.0,30.06,SSW,208,0.0,-999.0,86,0.00,,,0.00,153,Wunderground v.1.15,2013-11-18 14:58:00,
2013-11-18 08:03:00,47.0,43.0,30.06,SSW,208,0.0,-999.0,86,0.00,,,0.00,171,Wunderground v.1.15,2013-11-18 15:03:00,
2013-11-18 08:08:00,47.9,43.6,30.06,SSW,208,0.0,-999.0,85,0.00,,,0.00,193,Wunderground v.1.15,2013-11-18 15:08:00,
2013-11-18 08:13:00,48.6,44.3,30.07,SSW,208,0.0,-999.0,85,0.00,,,0.00,213,Wunderground v.1.15,2013-11-18 15:13:00,
2013-11-18 08:18:00,49.5,44.9,30.06,SSW,208,0.0,-999.0,84,0.00,,,0.00,97,Wunderground v.1.15,2013-11-18 15:18:00,
2013-11-18 08:23:00,50.4,45.1,30.06,SSW,208,0.0,-999.0,82,0.00,,,0.00,114,Wunderground v.1.15,2013-11-18 15:23:00,
2013-11-18 08:28:00,51.2,45.2,30.06,SSW,208,0.0,-999.0,80,0.00,,,0.00,250,Wunderground v.1.15,2013-11-18 15:28:00,
2013-11-18 08:33:00,52.1,45.8,30.06,SSW,208,0.0,-999.0,79,0.00,,,0.00,309,Wunderground v.1.15,2013-11-18 15:33:00,
2013-11-18 08:38:00,53.1,46.4,30.06,SSW,208,0.0,-999.0,78,0.00,,,0.00,257,Wunderground v.1.15,2013-11-18 15:38:00,
2013-11-18 08:43:00,54.4,47.7,30.07,SSW,208,0.0,-999.0,78,0.00,,,0.00,468,Wunderground v.1.15,2013-11-18 15:43:00,
2013-11-18 08:48:00,55.8,48.0,30.07,SSW,208,0.0,-999.0,75,0.00,,,0.00,135,Wunderground v.1.15,2013-11-18 15:48:00,
2013-11-18 08:51:00,56.5,48.3,30.07,SSW,208,0.0,-999.0,74,0.00,,,0.00,408,Wunderground v.1.15,2013-11-18 15:51:00,
2013-11-18 08:56:00,57.5,48.2,30.07,SSW,208,0.0,-999.0,71,0.00,,,0.00,348,Wunderground v.1.15,2013-11-18 15:56:00,
2013-11-18 09:01:00,58.2,48.5,30.07,SSW,208,0.0,-999.0,70,0.00,,,0.00,390,Wunderground v.1.15,2013-11-18 16:01:00,
2013-11-18 09:07:00,59.0,48.4,30.07,SSW,208,0.0,-999.0,68,0.00,,,0.00,390,Wunderground v.1.15,2013-11-18 16:07:00,
2013-11-18 09:12:00,59.7,48.7,30.07,SSW,208,0.0,-999.0,67,0.00,,,0.00,401,Wunderground v.1.15,2013-11-18 16:12:00,
2013-11-18 09:17:00,60.3,48.5,30.07,SSW,208,0.0,-999.0,65,0.00,,,0.00,290,Wunderground v.1.15,2013-11-18 16:17:00,
2013-11-18 09:22:00,60.9,48.6,30.07,SSW,208,0.0,-999.0,64,0.00,,,0.00,146,Wunderground v.1.15,2013-11-18 16:22:00,
2013-11-18 09:27:00,61.4,48.7,30.07,SSW,208,0.0,-999.0,63,0.00,,,0.00,504,Wunderground v.1.15,2013-11-18 16:27:00,
2013-11-18 09:32:00,61.8,49.1,30.06,SSW,208,0.0,-999.0,63,0.00,,,0.00,269,Wunderground v.1.15,2013-11-18 16:32:00,
2013-11-18 09:37:00,62.5,49.3,30.06,SSW,208,0.0,-999.0,62,0.00,,,0.00,538,Wunderground v.1.15,2013-11-18 16:37:00,
2013-11-18 09:42:00,63.3,49.6,30.06,SSW,208,0.0,-999.0,61,0.00,,,0.00,517,Wunderground v.1.15,2013-11-18 16:42:00,
2013-11-18 09:47:00,64.0,49.8,30.06,SSW,208,0.0,-999.0,60,0.00,,,0.00,568,Wunderground v.1.15,2013-11-18 16:47:00,
2013-11-18 09:52:00,64.9,50.2,30.06,SSW,208,0.0,-999.0,59,0.00,,,0.00,580,Wunderground v.1.15,2013-11-18 16:52:00,
2013-11-18 09:57:00,65.8,50.6,30.06,SSW,208,0.0,-999.0,58,0.00,,,0.00,571,Wunderground v.1.15,2013-11-18 16:57:00,
2013-11-18 10:02:00,66.6,50.9,30.06,SSW,208,0.0,-999.0,57,0.00,,,0.00,540,Wunderground v.1.15,2013-11-18 17:02:00,
2013-11-18 10:08:00,67.5,50.3,30.05,SSW,208,1.0,-999.0,54,0.00,,,0.00,120,Wunderground v.1.15,2013-11-18 17:08:00,
2013-11-18 10:13:00,67.5,49.8,30.05,SSW,208,0.0,-999.0,53,0.00,,,0.00,132,Wunderground v.1.15,2013-11-18 17:13:00,
2013-11-18 10:18:00,67.4,50.2,30.05,SSW,208,0.0,-999.0,54,0.00,,,0.00,234,Wunderground v.1.15,2013-11-18 17:18:00,
2013-11-18 10:23:00,67.2,50.0,30.05,SSW,208,0.0,-999.0,54,0.00,,,0.00,130,Wunderground v.1.15,2013-11-18 17:23:00,
2013-11-18 10:28:00,66.8,49.6,30.05,SSW,208,0.0,-999.0,54,0.00,,,0.00,127,Wunderground v.1.15,2013-11-18 17:28:00,
2013-11-18 10:33:00,66.5,49.8,30.05,SSW,208,2.0,-999.0,55,0.00,,,0.00,144,Wunderground v.1.15,2013-11-18 17:33:00,
2013-11-18 10:38:00,66.2,49.1,30.05,SSW,208,6.0,-999.0,54,0.00,,,0.00,132,Wunderground v.1.15,2013-11-18 17:38:00,
2013-11-18 10:43:00,65.8,48.7,30.04,SSW,208,2.0,-999.0,54,0.00,,,0.00,185,Wunderground v.1.15,2013-11-18 17:43:00,
2013-11-18 10:48:00,66.1,49.5,30.04,SSW,208,6.0,-999.0,55,0.00,,,0.00,197,Wunderground v.1.15,2013-11-18 17:48:00,
2013-11-18 10:53:00,66.4,49.2,30.04,SSW,208,0.0,-999.0,54,0.00,,,0.00,195,Wunderground v.1.15,2013-11-18 17:53:00,
2013-11-18 10:58:00,67.2,49.5,30.04,SSW,208,0.0,-999.0,53,0.00,,,0.00,100,Wunderground v.1.15,2013-11-18 17:58:00,
2013-11-18 11:03:00,67.7,48.4,30.04,SSW,208,0.0,-999.0,50,0.00,,,0.00,679,Wunderground v.1.15,2013-11-18 18:03:00,
2013-11-18 11:08:00,68.5,48.6,30.03,SSW,207,0.0,-999.0,49,0.00,,,0.00,677,Wunderground v.1.15,2013-11-18 18:08:00,
2013-11-18 11:13:00,68.7,48.2,30.03,SSW,207,0.0,-999.0,48,0.00,,,0.00,165,Wunderground v.1.15,2013-11-18 18:13:00,
2013-11-18 11:18:00,68.8,48.3,30.03,SSW,207,0.0,-999.0,48,0.00,,,0.00,248,Wunderground v.1.15,2013-11-18 18:18:00,
2013-11-18 11:23:00,69.4,49.4,30.02,SSW,207,0.0,-999.0,49,0.00,,,0.00,628,Wunderground v.1.15,2013-11-18 18:23:00,
2013-11-18 11:28:00,70.2,47.9,30.02,South,189,0.0,-999.0,45,0.00,,,0.00,780,Wunderground v.1.15,2013-11-18 18:28:00,
2013-11-18 11:33:00,70.2,47.9,30.02,South,185,0.0,-999.0,45,0.00,,,0.00,197,Wunderground v.1.15,2013-11-18 18:33:00,
2013-11-18 11:38:00,70.4,48.0,30.02,South,184,0.0,-999.0,45,0.00,,,0.00,758,Wunderground v.1.15,2013-11-18 18:38:00,
2013-11-18 11:43:00,70.7,48.3,30.01,South,184,0.0,-999.0,45,0.00,,,0.00,703,Wunderground v.1.15,2013-11-18 18:43:00,
2013-11-18 11:48:00,71.4,47.1,30.01,South,181,0.0,-999.0,42,0.00,,,0.00,717,Wunderground v.1.15,2013-11-18 18:48:00,
2013-11-18 11:53:00,72.0,46.3,30.01,South,177,0.0,-999.0,40,0.00,,,0.00,698,Wunderground v.1.15,2013-11-18 18:53:00,
2013-11-18 11:58:00,72.5,46.8,30.01,SSW,192,0.0,-999.0,40,0.00,,,0.00,673,Wunderground v.1.15,2013-11-18 18:58:00,
2013-11-18 12:03:00,72.8,45.7,30.00,SSW,194,5.0,-999.0,38,0.00,,,0.00,670,Wunderground v.1.15,2013-11-18 19:03:00,
2013-11-18 12:08:00,73.0,45.9,30.00,SSW,193,1.0,-999.0,38,0.00,,,0.00,670,Wunderground v.1.15,2013-11-18 19:08:00,
2013-11-18 12:13:00,73.3,45.4,29.99,SSW,197,2.0,-999.0,37,0.00,,,0.00,680,Wunderground v.1.15,2013-11-18 19:13:00,
2013-11-18 12:18:00,73.3,45.4,29.99,South,170,9.0,-999.0,37,0.00,,,0.00,701,Wunderground v.1.15,2013-11-18 19:18:00,
2013-11-18 12:23:00,73.6,47.1,29.99,South,172,0.0,-999.0,39,0.00,,,0.00,684,Wunderground v.1.15,2013-11-18 19:23:00,
2013-11-18 12:28:00,73.9,46.0,29.99,South,170,0.0,-999.0,37,0.00,,,0.00,689,Wunderground v.1.15,2013-11-18 19:28:00,
2013-11-18 12:33:00,74.1,43.9,29.98,South,178,0.0,-999.0,34,0.00,,,0.00,698,Wunderground v.1.15,2013-11-18 19:33:00,
2013-11-18 12:38:00,74.3,44.1,29.98,SW,234,0.0,-999.0,34,0.00,,,0.00,703,Wunderground v.1.15,2013-11-18 19:38:00,
2013-11-18 12:43:00,74.4,40.9,29.97,SSW,197,6.0,-999.0,30,0.00,,,0.00,691,Wunderground v.1.15,2013-11-18 19:43:00,
2013-11-18 12:48:00,74.6,41.1,29.97,SSW,207,1.0,-999.0,30,0.00,,,0.00,661,Wunderground v.1.15,2013-11-18 19:48:00,
2013-11-18 12:53:00,74.5,40.1,29.97,SSW,199,8.0,-999.0,29,0.00,,,0.00,656,Wunderground v.1.15,2013-11-18 19:53:00,
2013-11-18 12:58:00,74.6,40.2,29.97,South,191,4.0,-999.0,29,0.00,,,0.00,643,Wunderground v.1.15,2013-11-18 19:58:00,
2013-11-18 13:03:00,74.7,40.3,29.97,SSE,158,1.0,-999.0,29,0.00,,,0.00,636,Wunderground v.1.15,2013-11-18 20:03:00,
2013-11-18 13:08:00,74.7,40.3,29.97,South,190,6.0,-999.0,29,0.00,,,0.00,635,Wunderground v.1.15,2013-11-18 20:08:00,
2013-11-18 13:13:00,74.7,39.4,29.96,SSW,193,6.0,-999.0,28,0.00,,,0.00,629,Wunderground v.1.15,2013-11-18 20:13:00,
2013-11-18 13:18:00,74.8,39.5,29.96,SSW,195,2.0,-999.0,28,0.00,,,0.00,622,Wunderground v.1.15,2013-11-18 20:18:00,
2013-11-18 13:23:00,74.8,39.5,29.96,SSE,158,4.0,-999.0,28,0.00,,,0.00,613,Wunderground v.1.15,2013-11-18 20:23:00,
2013-11-18 13:28:00,74.9,40.5,29.96,SSW,196,4.0,-999.0,29,0.00,,,0.00,606,Wunderground v.1.15,2013-11-18 20:28:00,
2013-11-18 13:33:00,74.8,40.4,29.96,SSW,203,9.0,-999.0,29,0.00,,,0.00,598,Wunderground v.1.15,2013-11-18 20:33:00,
2013-11-18 13:38:00,74.7,40.3,29.95,South,189,5.0,-999.0,29,0.00,,,0.00,584,Wunderground v.1.15,2013-11-18 20:38:00,
2013-11-18 13:43:00,74.6,40.2,29.95,SSW,203,7.0,-999.0,29,0.00,,,0.00,584,Wunderground v.1.15,2013-11-18 20:43:00,
2013-11-18 13:48:00,74.6,41.1,29.95,South,176,0.0,-999.0,30,0.00,,,0.00,573,Wunderground v.1.15,2013-11-18 20:48:00,
2013-11-18 13:53:00,74.7,41.2,29.95,South,177,6.0,-999.0,30,0.00,,,0.00,584,Wunderground v.1.15,2013-11-18 20:53:00,
2013-11-18 13:58:00,74.8,40.4,29.95,SSE,166,0.0,-999.0,29,0.00,,,0.00,550,Wunderground v.1.15,2013-11-18 20:58:00,
2013-11-18 14:03:00,74.7,41.2,29.95,SSW,197,5.0,-999.0,30,0.00,,,0.00,541,Wunderground v.1.15,2013-11-18 21:03:00,
2013-11-18 14:08:00,74.7,40.3,29.94,SSW,197,0.0,-999.0,29,0.00,,,0.00,533,Wunderground v.1.15,2013-11-18 21:08:00,
2013-11-18 14:13:00,74.8,41.3,29.94,SSW,197,0.0,-999.0,30,0.00,,,0.00,522,Wunderground v.1.15,2013-11-18 21:13:00,
2013-11-18 14:18:00,74.8,41.3,29.94,South,189,1.0,-999.0,30,0.00,,,0.00,510,Wunderground v.1.15,2013-11-18 21:18:00,
2013-11-18 14:23:00,74.9,42.2,29.94,South,172,4.0,-999.0,31,0.00,,,0.00,501,Wunderground v.1.15,2013-11-18 21:23:00,
2013-11-18 14:28:00,75.0,40.6,29.94,South,180,6.0,-999.0,29,0.00,,,0.00,489,Wunderground v.1.15,2013-11-18 21:28:00,
2013-11-18 14:33:00,75.2,40.7,29.94,SSW,204,0.0,-999.0,29,0.00,,,0.00,478,Wunderground v.1.15,2013-11-18 21:33:00,
2013-11-18 14:38:00,75.3,39.9,29.94,South,174,0.0,-999.0,28,0.00,,,0.00,468,Wunderground v.1.15,2013-11-18 21:38:00,
2013-11-18 14:43:00,75.3,39.9,29.93,South,170,2.0,-999.0,28,0.00,,,0.00,455,Wunderground v.1.15,2013-11-18 21:43:00,
2013-11-18 14:48:00,75.3,39.0,29.93,SSW,192,3.0,-999.0,27,0.00,,,0.00,441,Wunderground v.1.15,2013-11-18 21:48:00,
2013-11-18 14:53:00,75.2,39.8,29.93,SSW,199,3.0,-999.0,28,0.00,,,0.00,429,Wunderground v.1.15,2013-11-18 21:53:00,
2013-11-18 14:58:00,75.1,38.8,29.93,SSW,192,3.0,-999.0,27,0.00,,,0.00,418,Wunderground v.1.15,2013-11-18 21:58:00,
2013-11-18 15:03:00,75.1,39.8,29.93,South,187,0.0,-999.0,28,0.00,,,0.00,404,Wunderground v.1.15,2013-11-18 22:03:00,
2013-11-18 15:08:00,75.2,37.9,29.93,South,187,2.0,-999.0,26,0.00,,,0.00,396,Wunderground v.1.15,2013-11-18 22:08:00,
2013-11-18 15:14:00,75.2,36.9,29.93,South,189,0.0,-999.0,25,0.00,,,0.00,380,Wunderground v.1.15,2013-11-18 22:14:00,
2013-11-18 15:19:00,75.3,37.0,29.92,South,190,3.0,-999.0,25,0.00,,,0.00,369,Wunderground v.1.15,2013-11-18 22:19:00,
2013-11-18 15:24:00,75.4,38.1,29.92,South,191,0.0,-999.0,26,0.00,,,0.00,353,Wunderground v.1.15,2013-11-18 22:24:00,
2013-11-18 15:29:00,75.5,37.2,29.92,South,191,0.0,-999.0,25,0.00,,,0.00,339,Wunderground v.1.15,2013-11-18 22:29:00,
2013-11-18 15:34:00,75.6,35.2,29.93,SSW,200,6.0,-999.0,23,0.00,,,0.00,323,Wunderground v.1.15,2013-11-18 22:34:00,
2013-11-18 15:39:00,75.3,34.9,29.93,SSW,205,10.0,-999.0,23,0.00,,,0.00,308,Wunderground v.1.15,2013-11-18 22:39:00,
2013-11-18 15:44:00,75.0,34.7,29.93,SSW,204,6.0,-999.0,23,0.00,,,0.00,290,Wunderground v.1.15,2013-11-18 22:44:00,
2013-11-18 15:49:00,74.8,35.6,29.93,SW,226,2.0,-999.0,24,0.00,,,0.00,276,Wunderground v.1.15,2013-11-18 22:49:00,
2013-11-18 15:54:00,74.6,35.4,29.93,SW,223,7.0,-999.0,24,0.00,,,0.00,260,Wunderground v.1.15,2013-11-18 22:54:00,
2013-11-18 15:59:00,74.3,34.1,29.93,SW,214,3.0,-999.0,23,0.00,,,0.00,241,Wunderground v.1.15,2013-11-18 22:59:00,
2013-11-18 16:04:00,74.1,36.0,29.93,SW,214,1.0,-999.0,25,0.00,,,0.00,221,Wunderground v.1.15,2013-11-18 23:04:00,
2013-11-18 16:09:00,73.8,35.8,29.93,SSW,209,0.0,-999.0,25,0.00,,,0.00,200,Wunderground v.1.15,2013-11-18 23:09:00,
2013-11-18 16:14:00,73.6,36.6,29.93,SSW,210,3.0,-999.0,26,0.00,,,0.00,179,Wunderground v.1.15,2013-11-18 23:14:00,
2013-11-18 16:19:00,73.5,37.5,29.93,SSW,209,4.0,-999.0,27,0.00,,,0.00,162,Wunderground v.1.15,2013-11-18 23:19:00,
2013-11-18 16:24:00,73.2,37.2,29.93,SSW,207,5.0,-999.0,27,0.00,,,0.00,144,Wunderground v.1.15,2013-11-18 23:24:00,
2013-11-18 16:29:00,73.0,37.0,29.93,SSW,207,1.0,-999.0,27,0.00,,,0.00,125,Wunderground v.1.15,2013-11-18 23:29:00,
2013-11-18 16:34:00,72.8,36.9,29.93,SSW,207,0.0,-999.0,27,0.00,,,0.00,105,Wunderground v.1.15,2013-11-18 23:34:00,
2013-11-18 16:39:00,72.4,36.5,29.93,SSW,207,2.0,-999.0,27,0.00,,,0.00,88,Wunderground v.1.15,2013-11-18 23:39:00,
2013-11-18 16:44:00,72.1,36.3,29.93,SSW,207,0.0,-999.0,27,0.00,,,0.00,70,Wunderground v.1.15,2013-11-18 23:44:00,
2013-11-18 16:48:00,71.8,36.0,29.93,SSW,207,0.0,-999.0,27,0.00,,,0.00,54,Wunderground v.1.15,2013-11-18 23:48:00,
2013-11-18 16:53:00,71.6,35.8,29.93,SSW,207,0.0,-999.0,27,0.00,,,0.00,37,Wunderground v.1.15,2013-11-18 23:53:00,
2013-11-18 16:58:00,71.4,35.7,29.93,SSW,207,0.0,-999.0,27,0.00,,,0.00,12,Wunderground v.1.15,2013-11-18 23:58:00,
2013-11-18 17:04:00,71.2,36.4,29.93,SSW,207,0.0,-999.0,28,0.00,,,0.00,11,Wunderground v.1.15,2013-11-19 00:04:00,
2013-11-18 17:09:00,70.7,36.0,29.93,SSW,207,0.0,-999.0,28,0.00,,,0.00,9,Wunderground v.1.15,2013-11-19 00:09:00,
2013-11-18 17:15:00,70.1,35.5,29.93,SSW,207,0.0,-999.0,28,0.00,,,0.00,7,Wunderground v.1.15,2013-11-19 00:15:00,
2013-11-18 17:20:00,69.4,34.9,29.93,SSW,207,0.0,-999.0,28,0.00,,,0.00,5,Wunderground v.1.15,2013-11-19 00:20:00,
2013-11-18 17:25:00,68.6,34.2,29.93,SSW,207,0.0,-999.0,28,0.00,,,0.00,0,Wunderground v.1.15,2013-11-19 00:25:00,
2013-11-18 17:34:00,67.1,33.8,29.93,SSW,207,0.0,-999.0,29,0.00,,,0.00,0,Wunderground v.1.15,2013-11-19 00:34:00,
2013-11-18 17:39:00,66.1,33.7,29.93,SSW,207,0.0,-999.0,30,0.00,,,0.00,0,Wunderground v.1.15,2013-11-19 00:39:00,
2013-11-18 17:44:00,65.3,32.2,29.93,SSW,207,0.0,-999.0,29,0.00,,,0.00,0,Wunderground v.1.15,2013-11-19 00:44:00,
2013-11-18 17:49:00,64.5,31.5,29.94,SSW,207,0.0,-999.0,29,0.00,,,0.00,0,Wunderground v.1.15,2013-11-19 00:49:00,
2013-11-18 17:54:00,63.6,30.7,29.94,SSW,207,0.0,-999.0,29,0.00,,,0.00,0,Wunderground v.1.15,2013-11-19 00:54:00,
2013-11-18 17:59:00,62.6,30.7,29.94,SSW,207,0.0,-999.0,30,0.00,,,0.00,0,Wunderground v.1.15,2013-11-19 00:59:00,
2013-11-18 18:04:00,61.7,30.7,29.94,SSW,207,0.0,-999.0,31,0.00,,,0.00,0,Wunderground v.1.15,2013-11-19 01:04:00,
2013-11-18 18:09:00,60.9,30.8,29.95,SSW,207,0.0,-999.0,32,0.00,,,0.00,0,Wunderground v.1.15,2013-11-19 01:09:00,
2013-11-18 18:14:00,60.2,30.2,29.94,SSW,207,0.0,-999.0,32,0.00,,,0.00,0,Wunderground v.1.15,2013-11-19 01:14:00,
2013-11-18 18:19:00,59.5,30.3,29.95,SSW,207,0.0,-999.0,33,0.00,,,0.00,0,Wunderground v.1.15,2013-11-19 01:19:00,
2013-11-18 18:24:00,59.0,30.6,29.95,SSW,207,0.0,-999.0,34,0.00,,,0.00,0,Wunderground v.1.15,2013-11-19 01:24:00,
2013-11-18 18:30:00,58.4,30.8,29.95,SSW,207,0.0,-999.0,35,0.00,,,0.00,0,Wunderground v.1.15,2013-11-19 01:30:00,
2013-11-18 18:35:00,57.8,30.3,29.95,SSW,207,0.0,-999.0,35,0.00,,,0.00,0,Wunderground v.1.15,2013-11-19 01:35:00,
2013-11-18 18:40:00,57.0,29.6,29.95,SSW,207,0.0,-999.0,35,0.00,,,0.00,0,Wunderground v.1.15,2013-11-19 01:40:00,
2013-11-18 18:44:00,56.4,29.7,29.95,SSW,207,0.0,-999.0,36,0.00,,,0.00,0,Wunderground v.1.15,2013-11-19 01:44:00,
2013-11-18 18:49:00,55.7,29.8,29.96,SSW,207,0.0,-999.0,37,0.00,,,0.00,0,Wunderground v.1.15,2013-11-19 01:49:00,
2013-11-18 18:54:00,55.1,30.6,29.96,SSW,207,0.0,-999.0,39,0.00,,,0.00,0,Wunderground v.1.15,2013-11-19 01:54:00,
2013-11-18 19:00:00,54.8,30.9,29.96,SSW,207,0.0,-999.0,40,0.00,,,0.00,0,Wunderground v.1.15,2013-11-19 02:00:00,
2013-11-18 19:05:00,54.6,31.3,29.96,SSW,207,0.0,-999.0,41,0.00,,,0.00,0,Wunderground v.1.15,2013-11-19 02:05:00,
2013-11-18 19:10:00,54.3,31.1,29.96,SSW,207,0.0,-999.0,41,0.00,,,0.00,0,Wunderground v.1.15,2013-11-19 02:10:00,
2013-11-18 19:15:00,54.0,30.8,29.97,SSW,207,0.0,-999.0,41,0.00,,,0.00,0,Wunderground v.1.15,2013-11-19 02:15:00,
2013-11-18 19:20:00,53.8,31.2,29.97,SSW,207,0.0,-999.0,42,0.00,,,0.00,0,Wunderground v.1.15,2013-11-19 02:20:00,
2013-11-18 19:25:00,53.5,31.5,29.97,SSW,207,0.0,-999.0,43,0.00,,,0.00,0,Wunderground v.1.15,2013-11-19 02:25:00,
2013-11-18 19:30:00,53.3,30.8,29.97,SSW,207,0.0,-999.0,42,0.00,,,0.00,0,Wunderground v.1.15,2013-11-19 02:30:00,
2013-11-18 19:35:00,52.9,30.4,29.97,SSW,207,0.0,-999.0,42,0.00,,,0.00,0,Wunderground v.1.15,2013-11-19 02:35:00,
2013-11-18 19:40:00,52.7,30.2,29.97,SSW,207,0.0,-999.0,42,0.00,,,0.00,0,Wunderground v.1.15,2013-11-19 02:40:00,
2013-11-18 19:45:00,52.4,30.0,29.98,SSW,207,0.0,-999.0,42,0.00,,,0.00,0,Wunderground v.1.15,2013-11-19 02:45:00,
2013-11-18 19:50:00,52.2,30.4,29.98,SSW,207,0.0,-999.0,43,0.00,,,0.00,0,Wunderground v.1.15,2013-11-19 02:50:00,
2013-11-18 19:55:00,52.1,30.3,29.98,SSW,207,0.0,-999.0,43,0.00,,,0.00,0,Wunderground v.1.15,2013-11-19 02:55:00,
2013-11-18 20:00:00,51.8,30.0,29.98,SSW,207,0.0,-999.0,43,0.00,,,0.00,0,Wunderground v.1.15,2013-11-19 03:00:00,
2013-11-18 20:05:00,51.6,29.8,29.98,SSW,207,0.0,-999.0,43,0.00,,,0.00,0,Wunderground v.1.15,2013-11-19 03:05:00,
2013-11-18 20:10:00,51.4,29.6,29.99,SSW,207,0.0,-999.0,43,0.00,,,0.00,0,Wunderground v.1.15,2013-11-19 03:10:00,
2013-11-18 20:15:00,51.2,30.0,29.99,SSW,207,0.0,-999.0,44,0.00,,,0.00,0,Wunderground v.1.15,2013-11-19 03:15:00,
2013-11-18 20:20:00,50.9,29.7,29.99,SSW,207,0.0,-999.0,44,0.00,,,0.00,0,Wunderground v.1.15,2013-11-19 03:20:00,
2013-11-18 20:25:00,50.5,29.4,29.99,SSW,207,0.0,-999.0,44,0.00,,,0.00,0,Wunderground v.1.15,2013-11-19 03:25:00,
2013-11-18 20:30:00,50.3,29.7,29.99,SSW,207,0.0,-999.0,45,0.00,,,0.00,0,Wunderground v.1.15,2013-11-19 03:30:00,
2013-11-18 20:35:00,50.0,29.5,29.99,SSW,207,0.0,-999.0,45,0.00,,,0.00,0,Wunderground v.1.15,2013-11-19 03:35:00,
2013-11-18 20:40:00,49.8,29.8,29.99,SSW,207,0.0,-999.0,46,0.00,,,0.00,0,Wunderground v.1.15,2013-11-19 03:40:00,
2013-11-18 20:45:00,49.6,29.1,29.99,SSW,207,0.0,-999.0,45,0.00,,,0.00,0,Wunderground v.1.15,2013-11-19 03:45:00,
2013-11-18 20:50:00,49.3,28.8,30.00,SSW,207,0.0,-999.0,45,0.00,,,0.00,0,Wunderground v.1.15,2013-11-19 03:50:00,
2013-11-18 20:55:00,49.0,29.1,30.00,SSW,207,0.0,-999.0,46,0.00,,,0.00,0,Wunderground v.1.15,2013-11-19 03:55:00,
2013-11-18 21:00:00,48.7,29.4,30.00,SSW,207,0.0,-999.0,47,0.00,,,0.00,0,Wunderground v.1.15,2013-11-19 04:00:00,
2013-11-18 21:05:00,48.4,29.6,30.00,SSW,207,0.0,-999.0,48,0.00,,,0.00,0,Wunderground v.1.15,2013-11-19 04:05:00,
2013-11-18 21:08:00,48.2,28.9,30.00,SSW,207,0.0,-999.0,47,0.00,,,0.00,0,Wunderground v.1.15,2013-11-19 04:08:00,
2013-11-18 21:13:00,47.9,28.1,30.00,SSW,207,0.0,-999.0,46,0.00,,,0.00,0,Wunderground v.1.15,2013-11-19 04:13:00,
2013-11-18 21:18:00,47.5,28.3,30.00,SSW,207,0.0,-999.0,47,0.00,,,0.00,0,Wunderground v.1.15,2013-11-19 04:18:00,
2013-11-18 21:23:00,47.2,28.0,30.00,SSW,207,0.0,-999.0,47,0.00,,,0.00,0,Wunderground v.1.15,2013-11-19 04:23:00,
2013-11-18 21:28:00,46.8,28.1,30.00,SSW,207,0.0,-999.0,48,0.00,,,0.00,0,Wunderground v.1.15,2013-11-19 04:28:00,
2013-11-18 21:33:00,46.4,28.3,30.00,SSW,207,0.0,-999.0,49,0.00,,,0.00,0,Wunderground v.1.15,2013-11-19 04:33:00,
2013-11-18 21:38:00,46.1,28.5,30.00,SSW,207,0.0,-999.0,50,0.00,,,0.00,0,Wunderground v.1.15,2013-11-19 04:38:00,
2013-11-18 21:43:00,46.0,28.9,30.01,SSW,207,0.0,-999.0,51,0.00,,,0.00,0,Wunderground v.1.15,2013-11-19 04:43:00,
2013-11-18 21:48:00,45.9,29.2,30.01,SSW,207,0.0,-999.0,52,0.00,,,0.00,0,Wunderground v.1.15,2013-11-19 04:48:00,
2013-11-18 21:53:00,45.9,28.8,30.01,SSW,207,0.0,-999.0,51,0.00,,,0.00,0,Wunderground v.1.15,2013-11-19 04:53:00,
2013-11-18 21:58:00,45.8,28.7,30.01,SSW,207,0.0,-999.0,51,0.00,,,0.00,0,Wunderground v.1.15,2013-11-19 04:58:00,
2013-11-18 22:01:00,45.7,28.1,30.01,SSW,207,0.0,-999.0,50,0.00,,,0.00,0,Wunderground v.1.15,2013-11-19 05:01:00,
2013-11-18 22:07:00,45.6,28.5,30.01,SSW,207,0.0,-999.0,51,0.00,,,0.00,0,Wunderground v.1.15,2013-11-19 05:07:00,
2013-11-18 22:12:00,45.4,28.8,30.01,SSW,207,0.0,-999.0,52,0.00,,,0.00,0,Wunderground v.1.15,2013-11-19 05:12:00,
2013-11-18 22:17:00,45.2,28.6,30.01,SSW,207,0.0,-999.0,52,0.00,,,0.00,0,Wunderground v.1.15,2013-11-19 05:17:00,
2013-11-18 22:22:00,45.0,28.4,30.01,SSW,207,0.0,-999.0,52,0.00,,,0.00,0,Wunderground v.1.15,2013-11-19 05:22:00,
2013-11-18 22:27:00,45.0,29.3,30.01,SSW,207,0.0,-999.0,54,0.00,,,0.00,0,Wunderground v.1.15,2013-11-19 05:27:00,
2013-11-18 22:32:00,44.9,28.8,30.02,SSW,207,0.0,-999.0,53,0.00,,,0.00,0,Wunderground v.1.15,2013-11-19 05:32:00,
2013-11-18 22:37:00,44.7,28.6,30.01,SSW,207,0.0,-999.0,53,0.00,,,0.00,0,Wunderground v.1.15,2013-11-19 05:37:00,
2013-11-18 22:42:00,44.6,28.5,30.02,SSW,207,0.0,-999.0,53,0.00,,,0.00,0,Wunderground v.1.15,2013-11-19 05:42:00,
2013-11-18 22:47:00,44.4,28.8,30.01,SSW,207,0.0,-999.0,54,0.00,,,0.00,0,Wunderground v.1.15,2013-11-19 05:47:00,
2013-11-18 22:52:00,44.2,28.1,30.01,SSW,207,0.0,-999.0,53,0.00,,,0.00,0,Wunderground v.1.15,2013-11-19 05:52:00,
2013-11-18 22:57:00,43.9,27.9,30.02,SSW,207,0.0,-999.0,53,0.00,,,0.00,0,Wunderground v.1.15,2013-11-19 05:57:00,
2013-11-18 23:02:00,43.6,27.6,30.02,SSW,207,0.0,-999.0,53,0.00,,,0.00,0,Wunderground v.1.15,2013-11-19 06:02:00,
2013-11-18 23:07:00,43.4,27.4,30.01,SSW,207,0.0,-999.0,53,0.00,,,0.00,0,Wunderground v.1.15,2013-11-19 06:07:00,
2013-11-18 23:12:00,43.1,27.6,30.01,SSW,207,0.0,-999.0,54,0.00,,,0.00,0,Wunderground v.1.15,2013-11-19 06:12:00,
2013-11-18 23:17:00,42.9,27.4,30.01,SSW,207,0.0,-999.0,54,0.00,,,0.00,0,Wunderground v.1.15,2013-11-19 06:17:00,
2013-11-18 23:22:00,42.5,27.5,30.02,SSW,207,0.0,-999.0,55,0.00,,,0.00,0,Wunderground v.1.15,2013-11-19 06:22:00,
2013-11-18 23:27:00,42.3,27.3,30.02,SSW,207,0.0,-999.0,55,0.00,,,0.00,0,Wunderground v.1.15,2013-11-19 06:27:00,
2013-11-18 23:32:00,42.0,27.4,30.02,SSW,207,0.0,-999.0,56,0.00,,,0.00,0,Wunderground v.1.15,2013-11-19 06:32:00,
2013-11-18 23:37:00,41.8,27.2,30.02,SSW,207,0.0,-999.0,56,0.00,,,0.00,0,Wunderground v.1.15,2013-11-19 06:37:00,
2013-11-18 23:42:00,41.5,27.0,30.02,SSW,207,0.0,-999.0,56,0.00,,,0.00,0,Wunderground v.1.15,2013-11-19 06:42:00,
2013-11-18 23:47:00,41.3,27.2,30.02,SSW,207,0.0,-999.0,57,0.00,,,0.00,0,Wunderground v.1.15,2013-11-19 06:47:00,
2013-11-18 23:52:00,41.1,27.0,30.01,SSW,207,0.0,-999.0,57,0.00,,,0.00,0,Wunderground v.1.15,2013-11-19 06:52:00,
2013-11-18 23:57:00,40.9,27.2,30.01,SSW,207,0.0,-999.0,58,0.00,,,0.00,0,Wunderground v.1.15,2013-11-19 06:57:00,